Location: Chisholm
(54.9102°N, 114.1701°W)
Time: 11:01:19
(UTC+00:00)

N. Korean satellite - Pass Details

Date: 02 December 2021
Orbit: 447 x 491 km, 97.3° (Epoch: 23 January)

Event Time Altitude Azimuth Distance (km) Brightness Sun altitude
Rises 00:44:51 0° 198° (SSW) 2,536 10.8 -12.2°
Reaches altitude 10° 00:47:15 10° 214° (SW) 1,653 10.1 -12.5°
Maximum altitude 00:50:04 22° 267° (W) 1,088 9.3 -12.9°
Drops below altitude 10° 00:52:53 10° 320° (NW) 1,642 9.5 -13.2°
Sets 00:55:16 0° 336° (NNW) 2,515 10.3 -13.6°
